Location: Altenst�hlen
(53.5567°N, 8.9425°E)
Time: 14:09:43
(UTC+00:00)

ATLAS 3B R/B - Pass Details

Date: 23 October 2019
Orbit: 1028 x 1167 km, 63.8° (Epoch: 07 November)

Event Time Altitude Azimuth Distance (km) Brightness Sun altitude
Rises 16:54:12 0° 161° (SSE) 3,818 5.5 -7.1°
Reaches altitude 10° 16:58:03 10° 139° (SE) 2,848 4.6 -7.7°
Maximum altitude 17:01:39 15° 107° (ESE) 2,469 4.1 -8.2°
Enters shadow 17:05:11 10° 74° (ENE) 2,828 4.3 -8.7°
